WZZ33YN EPKT-EKBI

Flight info

Callsign WZZ33YN
Flight time 1h 20m
Altitude 38000
Route LUMVE L619 NUDRO DCT BINKA DCT KOGIM DCT SONAL M602 OLPIB DCT LOKSA
Aircraft A321/M-SDE3FGHIRWY/LB1

Departure

Time 2026-05-04 20:58
Airport Katowice Wojciech Korfanty International Airport (EPKT)

Arrival

Time 2026-05-04 22:18
Airport Billund Airport (EKBI)
Time Latitude Longitude Altitude Speed Heading
2026-05-04 20:41 50.47151 19.08183 1002 ft 0 kts 180°
2026-05-04 20:50 50.47161 19.08183 1002 ft 4 kts 178°
2026-05-04 20:50 50.47188 19.08180 998 ft 4 kts 170°
2026-05-04 20:51 50.47214 19.08170 999 ft 4 kts 153°
2026-05-04 20:51 50.47232 19.08146 998 ft 4 kts 102°
2026-05-04 20:51 50.47233 19.08137 998 ft 1 kts 90°
2026-05-04 20:53 50.47233 19.08148 998 ft 4 kts 90°
2026-05-04 20:53 50.47233 19.08210 1004 ft 8 kts 90°
2026-05-04 20:53 50.47231 19.08319 1001 ft 12 kts 90°
2026-05-04 20:54 50.47232 19.08457 1004 ft 14 kts 90°
2026-05-04 20:54 50.47231 19.08613 1001 ft 15 kts 90°
2026-05-04 20:54 50.47233 19.08782 1000 ft 16 kts 87°
2026-05-04 20:54 50.47231 19.08963 1004 ft 17 kts 90°
2026-05-04 20:55 50.47231 19.09159 1004 ft 19 kts 90°
2026-05-04 20:55 50.47230 19.09369 1004 ft 20 kts 90°
2026-05-04 20:55 50.47229 19.09571 1002 ft 17 kts 90°
2026-05-04 20:55 50.47229 19.09762 1003 ft 18 kts 89°
2026-05-04 20:56 50.47229 19.09963 1001 ft 17 kts 90°
2026-05-04 20:56 50.47285 19.10125 1001 ft 18 kts 52°
2026-05-04 20:56 50.47365 19.10285 1000 ft 19 kts 51°
2026-05-04 20:56 50.47442 19.10429 999 ft 15 kts 35°
2026-05-04 20:57 50.47541 19.10448 1000 ft 14 kts 353°
2026-05-04 20:57 50.47594 19.10327 1002 ft 16 kts 272°
2026-05-04 20:57 50.47596 19.10132 1000 ft 31 kts 270°
2026-05-04 20:57 50.47596 19.09363 1000 ft 107 kts 270°
2026-05-04 20:58 50.47599 19.07849 1000 ft 167 kts 270°
2026-05-04 20:58 50.47600 19.05982 1684 ft 167 kts 268°
2026-05-04 20:58 50.47596 19.04170 2535 ft 165 kts 265°
2026-05-04 20:58 50.47594 19.02323 3169 ft 177 kts 265°
2026-05-04 20:59 50.47593 19.00281 3450 ft 198 kts 266°
2026-05-04 20:59 50.47659 18.97999 3619 ft 224 kts 278°
2026-05-04 20:59 50.48483 18.95737 3921 ft 258 kts 311°
2026-05-04 20:59 50.49873 18.93860 4655 ft 266 kts 315°
2026-05-04 21:00 50.51314 18.92001 5487 ft 270 kts 317°
2026-05-04 21:00 50.52777 18.90134 6331 ft 272 kts 317°
2026-05-04 21:00 50.54256 18.88246 7113 ft 275 kts 318°
2026-05-04 21:00 50.55748 18.86332 7912 ft 279 kts 318°
2026-05-04 21:01 50.57255 18.84388 8685 ft 282 kts 318°
2026-05-04 21:01 50.58781 18.82409 9477 ft 286 kts 317°
2026-05-04 21:01 50.60324 18.80400 10206 ft 291 kts 317°
2026-05-04 21:01 50.61943 18.78288 10459 ft 314 kts 317°
2026-05-04 21:02 50.63679 18.76020 10763 ft 331 kts 317°
2026-05-04 21:02 50.65448 18.73708 11382 ft 338 kts 317°
2026-05-04 21:02 50.67268 18.71330 12099 ft 342 kts 317°
2026-05-04 21:02 50.69129 18.68893 12806 ft 345 kts 317°
2026-05-04 21:03 50.70963 18.66489 13506 ft 349 kts 316°
2026-05-04 21:03 50.72842 18.64026 14154 ft 353 kts 316°
2026-05-04 21:03 50.74744 18.61534 14777 ft 356 kts 317°
2026-05-04 21:03 50.76659 18.59024 15436 ft 359 kts 317°
2026-05-04 21:04 50.78591 18.56488 16084 ft 363 kts 317°
2026-05-04 21:04 50.80538 18.53933 16760 ft 365 kts 317°
2026-05-04 21:04 50.82496 18.51361 17428 ft 368 kts 317°
2026-05-04 21:04 50.84472 18.48759 18075 ft 371 kts 317°
2026-05-04 21:05 50.86460 18.46134 18642 ft 374 kts 317°
2026-05-04 21:05 50.88461 18.43488 19207 ft 377 kts 317°
2026-05-04 21:05 50.90476 18.40814 19781 ft 379 kts 317°
2026-05-04 21:05 50.92504 18.38112 20350 ft 382 kts 317°
2026-05-04 21:06 50.94544 18.35398 20916 ft 385 kts 317°
2026-05-04 21:06 50.96601 18.32667 21487 ft 387 kts 317°
2026-05-04 21:06 50.98676 18.29913 22062 ft 390 kts 317°
2026-05-04 21:06 51.00764 18.27133 22630 ft 393 kts 317°
2026-05-04 21:07 51.02865 18.24330 23187 ft 396 kts 317°
2026-05-04 21:07 51.04979 18.21506 23695 ft 398 kts 317°
2026-05-04 21:07 51.07102 18.18666 24141 ft 400 kts 317°
2026-05-04 21:07 51.09238 18.15807 24585 ft 402 kts 317°
2026-05-04 21:08 51.11383 18.12930 25035 ft 404 kts 317°
2026-05-04 21:08 51.13537 18.10036 25469 ft 406 kts 317°
2026-05-04 21:08 51.15704 18.07123 25894 ft 408 kts 317°
2026-05-04 21:08 51.17876 18.04199 26313 ft 410 kts 317°
2026-05-04 21:09 51.20065 18.01257 26736 ft 413 kts 317°
2026-05-04 21:09 51.22269 17.98298 27147 ft 415 kts 317°
2026-05-04 21:09 51.24475 17.95326 27550 ft 417 kts 317°
2026-05-04 21:09 51.26695 17.92329 27954 ft 419 kts 317°
2026-05-04 21:10 51.28924 17.89311 28361 ft 421 kts 317°
2026-05-04 21:10 51.31165 17.86273 28753 ft 423 kts 317°
2026-05-04 21:10 51.33417 17.83217 29144 ft 425 kts 317°
2026-05-04 21:10 51.35675 17.80145 29533 ft 427 kts 317°
2026-05-04 21:11 51.37940 17.77054 29916 ft 429 kts 317°
2026-05-04 21:11 51.40218 17.73941 30247 ft 431 kts 317°
2026-05-04 21:11 51.42508 17.70812 30590 ft 433 kts 316°
2026-05-04 21:11 51.44799 17.67686 30930 ft 434 kts 316°
2026-05-04 21:12 51.47104 17.64541 31271 ft 435 kts 316°
2026-05-04 21:12 51.49409 17.61385 31597 ft 437 kts 316°
2026-05-04 21:12 51.51715 17.58219 32048 ft 435 kts 316°
2026-05-04 21:12 51.54008 17.55066 32511 ft 434 kts 316°
2026-05-04 21:13 51.56267 17.51954 32953 ft 432 kts 316°
2026-05-04 21:13 51.58544 17.48817 33400 ft 431 kts 316°
2026-05-04 21:13 51.60813 17.45684 33848 ft 429 kts 316°
2026-05-04 21:13 51.63077 17.42557 34237 ft 428 kts 316°
2026-05-04 21:14 51.65329 17.39441 34590 ft 427 kts 316°
2026-05-04 21:14 51.67584 17.36319 34940 ft 427 kts 316°
2026-05-04 21:14 51.69835 17.33195 35263 ft 426 kts 316°
2026-05-04 21:14 51.72074 17.30079 35592 ft 426 kts 316°
2026-05-04 21:15 51.74318 17.26952 35941 ft 426 kts 316°
2026-05-04 21:15 51.76560 17.23828 36271 ft 425 kts 316°
2026-05-04 21:15 51.78796 17.20707 36565 ft 426 kts 316°
2026-05-04 21:15 51.81035 17.17577 36830 ft 426 kts 316°
2026-05-04 21:16 51.83278 17.14434 37109 ft 426 kts 316°
2026-05-04 21:16 51.85516 17.11296 37373 ft 426 kts 316°
2026-05-04 21:16 51.87755 17.08159 37659 ft 426 kts 316°
2026-05-04 21:16 51.89995 17.05021 37912 ft 426 kts 316°
2026-05-04 21:17 51.94467 16.98740 37950 ft 425 kts 316°
2026-05-04 21:17 51.98172 16.93505 37950 ft 425 kts 316°
2026-05-04 21:18 52.02627 16.87196 37963 ft 425 kts 315°
2026-05-04 21:18 52.07066 16.80912 37953 ft 422 kts 315°
2026-05-04 21:19 52.11489 16.74634 37948 ft 422 kts 315°
2026-05-04 21:19 52.15896 16.68331 37954 ft 422 kts 315°
2026-05-04 21:20 52.20308 16.62001 37961 ft 422 kts 315°
2026-05-04 21:20 52.24720 16.55668 37965 ft 423 kts 315°
2026-05-04 21:21 52.29138 16.49334 37983 ft 423 kts 315°
2026-05-04 21:21 52.33551 16.42990 37981 ft 422 kts 314°
2026-05-04 21:22 52.37946 16.36624 37980 ft 422 kts 314°
2026-05-04 21:22 52.42336 16.30250 37980 ft 422 kts 314°
2026-05-04 21:23 52.46721 16.23878 37978 ft 421 kts 314°
2026-05-04 21:23 52.51101 16.17485 37978 ft 421 kts 314°
2026-05-04 21:24 52.55483 16.11071 37985 ft 422 kts 314°
2026-05-04 21:24 52.59864 16.04651 37984 ft 422 kts 314°
2026-05-04 21:25 52.64253 15.98216 37980 ft 423 kts 314°
2026-05-04 21:25 52.68612 15.91798 38003 ft 423 kts 314°
2026-05-04 21:26 52.72986 15.85307 37994 ft 423 kts 314°
2026-05-04 21:26 52.77357 15.78814 37988 ft 423 kts 314°
2026-05-04 21:27 52.81729 15.72314 38010 ft 423 kts 314°
2026-05-04 21:27 52.86101 15.65811 37991 ft 423 kts 313°
2026-05-04 21:28 52.90472 15.59280 37992 ft 423 kts 313°
2026-05-04 21:28 52.94833 15.52728 38008 ft 423 kts 313°
2026-05-04 21:29 52.99195 15.46161 38012 ft 423 kts 313°
2026-05-04 21:29 53.03549 15.39594 38027 ft 423 kts 313°
2026-05-04 21:30 53.07901 15.33013 38008 ft 423 kts 313°
2026-05-04 21:30 53.12249 15.26413 38003 ft 423 kts 313°
2026-05-04 21:31 53.18773 15.16484 38003 ft 424 kts 313°
2026-05-04 21:32 53.23127 15.09836 38003 ft 424 kts 312°
2026-05-04 21:32 53.27470 15.03179 38005 ft 424 kts 312°
2026-05-04 21:33 53.31813 14.96502 38024 ft 424 kts 312°
2026-05-04 21:33 53.36149 14.89811 38016 ft 424 kts 312°
2026-05-04 21:34 53.40487 14.83110 38014 ft 424 kts 312°
2026-05-04 21:34 53.44823 14.76394 38003 ft 424 kts 312°
2026-05-04 21:35 53.49124 14.69706 38003 ft 424 kts 312°
2026-05-04 21:35 53.53479 14.62915 38023 ft 424 kts 312°
2026-05-04 21:36 53.57807 14.56152 38012 ft 425 kts 312°
2026-05-04 21:36 53.62128 14.49362 38030 ft 425 kts 312°
2026-05-04 21:37 53.66453 14.42568 38020 ft 425 kts 312°
2026-05-04 21:37 53.70743 14.35804 38011 ft 425 kts 312°
2026-05-04 21:38 53.75058 14.28972 38007 ft 425 kts 312°
2026-05-04 21:38 53.79705 14.22713 38011 ft 429 kts 318°
2026-05-04 21:39 53.84452 14.16584 38002 ft 429 kts 317°
2026-05-04 21:39 53.89184 14.10431 37997 ft 429 kts 317°
2026-05-04 21:40 53.93919 14.04254 38036 ft 429 kts 318°
2026-05-04 21:40 53.98653 13.98061 38021 ft 430 kts 318°
2026-05-04 21:41 54.03392 13.91854 38012 ft 430 kts 318°
2026-05-04 21:41 54.08134 13.85627 38008 ft 430 kts 318°
2026-05-04 21:42 54.12866 13.79392 38017 ft 430 kts 318°
2026-05-04 21:42 54.17603 13.73138 38004 ft 431 kts 317°
2026-05-04 21:43 54.22339 13.66871 38011 ft 431 kts 317°
2026-05-04 21:43 54.27067 13.60574 38032 ft 431 kts 317°
2026-05-04 21:44 54.31790 13.54257 38017 ft 431 kts 317°
2026-05-04 21:44 54.36517 13.47949 38013 ft 431 kts 317°
2026-05-04 21:45 54.41244 13.41622 38011 ft 431 kts 317°
2026-05-04 21:45 54.45966 13.35270 38009 ft 432 kts 317°
2026-05-04 21:46 54.50695 13.28899 38008 ft 432 kts 317°
2026-05-04 21:46 54.55425 13.22500 38017 ft 432 kts 317°
2026-05-04 21:47 54.60116 13.16137 38007 ft 432 kts 317°
2026-05-04 21:47 54.64873 13.09663 38003 ft 433 kts 317°
2026-05-04 21:48 54.69600 13.03210 38014 ft 433 kts 317°
2026-05-04 21:48 54.74290 12.96773 38006 ft 433 kts 317°
2026-05-04 21:49 54.79009 12.90274 37998 ft 433 kts 317°
2026-05-04 21:49 54.83727 12.83768 37999 ft 433 kts 317°
2026-05-04 21:50 54.88046 12.76632 38016 ft 425 kts 303°
2026-05-04 21:50 54.91009 12.67855 38008 ft 420 kts 295°
2026-05-04 21:50 54.92380 12.63378 37861 ft 419 kts 295°
2026-05-04 21:51 54.93749 12.58924 37336 ft 418 kts 295°
2026-05-04 21:51 54.95115 12.54474 36787 ft 417 kts 295°
2026-05-04 21:51 54.96476 12.50026 36238 ft 416 kts 295°
2026-05-04 21:51 54.97831 12.45578 35759 ft 414 kts 295°
2026-05-04 21:52 54.99170 12.41172 35358 ft 410 kts 295°
2026-05-04 21:52 55.00489 12.36804 34964 ft 405 kts 294°
2026-05-04 21:52 55.01750 12.32442 34561 ft 401 kts 293°
2026-05-04 21:52 55.02959 12.28094 34166 ft 396 kts 292°
2026-05-04 21:53 55.04133 12.23780 33742 ft 392 kts 292°
2026-05-04 21:53 55.05292 12.19502 33307 ft 388 kts 292°
2026-05-04 21:53 55.06424 12.15336 32887 ft 383 kts 291°
2026-05-04 21:53 55.07574 12.11115 32456 ft 378 kts 291°
2026-05-04 21:54 55.08686 12.07047 31987 ft 374 kts 291°
2026-05-04 21:54 55.09818 12.02923 31559 ft 370 kts 291°
2026-05-04 21:54 55.10911 11.98952 31159 ft 365 kts 291°
2026-05-04 21:54 55.12002 11.94980 30768 ft 360 kts 290°
2026-05-04 21:55 55.13079 11.91057 30374 ft 356 kts 290°
2026-05-04 21:55 55.14140 11.87185 29989 ft 351 kts 290°
2026-05-04 21:55 55.15185 11.83349 29519 ft 347 kts 290°
2026-05-04 21:55 55.16215 11.79544 29015 ft 345 kts 290°
2026-05-04 21:56 55.17238 11.75755 28520 ft 344 kts 290°
2026-05-04 21:56 55.18255 11.71982 28040 ft 342 kts 290°
2026-05-04 21:56 55.19267 11.68224 27578 ft 341 kts 290°
2026-05-04 21:56 55.20278 11.64479 27113 ft 340 kts 290°
2026-05-04 21:57 55.21286 11.60744 26648 ft 339 kts 291°
2026-05-04 21:57 55.22296 11.56986 26077 ft 342 kts 291°
2026-05-04 21:57 55.23303 11.53221 25593 ft 342 kts 291°
2026-05-04 21:57 55.24310 11.49454 25168 ft 341 kts 292°
2026-05-04 21:58 55.25317 11.45699 24664 ft 341 kts 292°
2026-05-04 21:58 55.26326 11.41933 24218 ft 340 kts 292°
2026-05-04 21:58 55.27329 11.38190 23803 ft 338 kts 292°
2026-05-04 21:58 55.28322 11.34462 23353 ft 336 kts 292°
2026-05-04 21:59 55.29308 11.30748 22866 ft 334 kts 292°
2026-05-04 21:59 55.30284 11.27067 22397 ft 332 kts 292°
2026-05-04 21:59 55.31256 11.23401 21935 ft 330 kts 292°
2026-05-04 21:59 55.32219 11.19765 21476 ft 328 kts 292°
2026-05-04 22:00 55.33177 11.16139 21034 ft 326 kts 292°
2026-05-04 22:00 55.34125 11.12548 20589 ft 324 kts 292°
2026-05-04 22:00 55.35068 11.08970 20158 ft 322 kts 292°
2026-05-04 22:00 55.36003 11.05410 19711 ft 320 kts 292°
2026-05-04 22:01 55.36928 11.01872 19284 ft 318 kts 292°
2026-05-04 22:01 55.37846 10.98351 18862 ft 316 kts 292°
2026-05-04 22:01 55.38759 10.94850 18441 ft 314 kts 292°
2026-05-04 22:01 55.39667 10.91369 17995 ft 312 kts 292°
2026-05-04 22:02 55.40571 10.87907 17543 ft 310 kts 292°
2026-05-04 22:02 55.41471 10.84468 17105 ft 308 kts 292°
2026-05-04 22:02 55.42363 10.81050 16683 ft 306 kts 291°
2026-05-04 22:02 55.43242 10.77661 16251 ft 304 kts 291°
2026-05-04 22:03 55.44105 10.74336 15933 ft 301 kts 291°
2026-05-04 22:03 55.44973 10.70978 15677 ft 301 kts 291°
2026-05-04 22:03 55.45838 10.67623 15434 ft 301 kts 291°
2026-05-04 22:03 55.46701 10.64275 15187 ft 299 kts 291°
2026-05-04 22:04 55.47551 10.60982 14931 ft 293 kts 291°
2026-05-04 22:04 55.48387 10.57727 14578 ft 290 kts 291°
2026-05-04 22:04 55.49214 10.54508 14215 ft 287 kts 291°
2026-05-04 22:04 55.50034 10.51313 13863 ft 285 kts 291°
2026-05-04 22:05 55.50844 10.48142 13477 ft 282 kts 291°
2026-05-04 22:05 55.51647 10.44998 13118 ft 279 kts 291°
2026-05-04 22:05 55.52443 10.41893 12768 ft 276 kts 291°
2026-05-04 22:05 55.53228 10.38823 12434 ft 273 kts 291°
2026-05-04 22:06 55.54005 10.35784 12085 ft 270 kts 291°
2026-05-04 22:06 55.54515 10.33783 11853 ft 269 kts 291°
2026-05-04 22:06 55.55277 10.30786 11514 ft 266 kts 291°
2026-05-04 22:06 55.56032 10.27817 11172 ft 264 kts 291°
2026-05-04 22:07 55.56779 10.24865 10848 ft 262 kts 291°
2026-05-04 22:07 55.57520 10.21939 10520 ft 260 kts 291°
2026-05-04 22:07 55.58257 10.19024 10185 ft 259 kts 291°
2026-05-04 22:07 55.58986 10.16129 9857 ft 257 kts 291°
2026-05-04 22:08 55.59712 10.13250 9519 ft 255 kts 291°
2026-05-04 22:08 55.60432 10.10394 9198 ft 253 kts 291°
2026-05-04 22:08 55.61144 10.07571 8879 ft 250 kts 291°
2026-05-04 22:08 55.61846 10.04771 8562 ft 248 kts 291°
2026-05-04 22:09 55.62543 10.01992 8246 ft 246 kts 291°
2026-05-04 22:09 55.63232 9.99236 7937 ft 244 kts 291°
2026-05-04 22:09 55.63917 9.96499 7628 ft 242 kts 291°
2026-05-04 22:09 55.64599 9.93782 7314 ft 241 kts 291°
2026-05-04 22:10 55.65275 9.91083 7010 ft 239 kts 291°
2026-05-04 22:10 55.65946 9.88394 6713 ft 238 kts 291°
2026-05-04 22:10 55.66610 9.85719 6407 ft 237 kts 291°
2026-05-04 22:10 55.67269 9.83061 6094 ft 235 kts 291°
2026-05-04 22:11 55.67929 9.80407 5794 ft 235 kts 291°
2026-05-04 22:11 55.68587 9.77761 5482 ft 234 kts 291°
2026-05-04 22:11 55.69243 9.75119 5184 ft 234 kts 292°
2026-05-04 22:11 55.69897 9.72476 4884 ft 234 kts 291°
2026-05-04 22:12 55.70545 9.69846 4610 ft 231 kts 292°
2026-05-04 22:12 55.71175 9.67298 4502 ft 220 kts 291°
2026-05-04 22:12 55.71779 9.64849 4457 ft 216 kts 291°
2026-05-04 22:12 55.72378 9.62407 4390 ft 215 kts 291°
2026-05-04 22:13 55.72976 9.59968 4304 ft 215 kts 291°
2026-05-04 22:13 55.73573 9.57533 4214 ft 215 kts 292°
2026-05-04 22:13 55.74161 9.55139 4121 ft 214 kts 292°
2026-05-04 22:13 55.74759 9.52696 4022 ft 213 kts 290°
2026-05-04 22:14 55.75052 9.50182 3864 ft 211 kts 268°
2026-05-04 22:14 55.74984 9.47585 3611 ft 211 kts 266°
2026-05-04 22:14 55.74908 9.44987 3353 ft 209 kts 266°
2026-05-04 22:14 55.74835 9.42442 3065 ft 204 kts 267°
2026-05-04 22:15 55.74764 9.39960 2792 ft 199 kts 268°
2026-05-04 22:15 55.74696 9.37584 2538 ft 185 kts 269°
2026-05-04 22:15 55.74633 9.35438 2281 ft 164 kts 269°
2026-05-04 22:15 55.74578 9.33555 2071 ft 144 kts 270°
2026-05-04 22:16 55.74528 9.31841 1872 ft 136 kts 270°
2026-05-04 22:16 55.74480 9.30193 1693 ft 132 kts 270°
2026-05-04 22:16 55.74433 9.28561 1499 ft 132 kts 270°
2026-05-04 22:16 55.74385 9.26938 1318 ft 132 kts 270°
2026-05-04 22:17 55.74337 9.25310 1126 ft 132 kts 269°
2026-05-04 22:17 55.74289 9.23672 936 ft 134 kts 268°
2026-05-04 22:17 55.74245 9.22027 759 ft 134 kts 267°
2026-05-04 22:17 55.74194 9.20386 546 ft 132 kts 268°
2026-05-04 22:18 55.74144 9.18763 365 ft 131 kts 266°
2026-05-04 22:18 55.74096 9.17144 224 ft 126 kts 266°
2026-05-04 22:18 55.74054 9.15792 216 ft 97 kts 266°
2026-05-04 22:18 55.74026 9.14858 216 ft 43 kts 267°
2026-05-04 22:19 55.74018 9.14564 216 ft 12 kts 275°
2026-05-04 22:19 55.74084 9.14496 220 ft 11 kts 355°
2026-05-04 22:19 55.74164 9.14488 218 ft 12 kts 357°
2026-05-04 22:19 55.74236 9.14481 218 ft 8 kts 357°
2026-05-04 22:20 55.74300 9.14476 216 ft 10 kts 357°
2026-05-04 22:20 55.74377 9.14467 225 ft 12 kts 356°
2026-05-04 22:20 55.74439 9.14535 218 ft 12 kts 75°
2026-05-04 22:20 55.74445 9.14667 221 ft 11 kts 86°
2026-05-04 22:21 55.74458 9.14750 223 ft 6 kts 36°
2026-05-04 22:21 55.74506 9.14753 225 ft 7 kts 356°
2026-05-04 22:21 55.74527 9.14750 222 ft 1 kts 356°
2026-05-04 22:21 55.74529 9.14750 222 ft 0 kts 356°